Create Custom Reports and Graphics: Custom Report

North/Central Map

Map

15 Minute Data

South County Map

Map

15 Minute Data

Northern Sonoma County Latest

25 Stations

15 Minute Data | America/Los_Angeles
as of 5/9/26 5:36 AM PDT
Station Date Time Temp (°F) RH (%) Dew Pt (°F) Wind Spd (mph) Wind Dir (°) Wind Gust (mph) Latest Rain (In) Daily Rain (In) Daily Max Temp (°F) Daily Min Temp (°F)
Bavarian Lion EFW 5/9/26 0530 48.6   3.4 - - - - - 0.00 0.00 51.8   0.6 47.9   3.8
Rockpile Lower (Cooley) 5/9/26 0515 54.4   7.6 67   27 43.8   1.4 3.3   3.3 NNW | 327 6.5   6.1 0.00 0.00 58.2   6.1 53.4   6.7
Rockpile Upper (Cooley) 5/9/26 0530 53.5   9.7 65   34 42.2   1.6 11.8   0.4 NNW | 331 14.9   2.9 0.00 0.00 58.4   8.5 50.9   7.3
Lower Dry Creek Valley 5/9/26 0530 47.3   3.9 100   0 47.3   3.9 0.0   0.0 N | 0 0.0   2.6 0.00 0.00 51.7   1.5 47.2   3.6
Geyserville-South (Nervo Station) 5/9/26 0530 49.6   0.2 - - 0.0   1.1 N | 0 0.0   2.7 0.00 0.00 53.6   1.1 49.0   0.0
Franz Valley (Stornetta) 5/9/26 0530 45.9   5.6 96   0 44.8   5.4 0.1   0.6 SW | 222 1.1   2.3 0.00 0.00 50.5   1.1 45.9   5.2
Geyserville (Ranch 3) 5/9/26 0530 49.0   0.2 100   0 49.0   0.1 0.0   1.2 N | 0 0.0   2.9 0.00 0.00 53.8   0.1 48.9   0.4
Geyserville-North (Hoffman) 5/9/26 0530 46.9   1.2 94   0 45.4   1.3 0.1   0.3 NW | 311 1.2   1.0 0.00 0.00 51.9   1.7 46.5   1.2
Knights Valley (Bavarian Lion) 5/9/26 0530 47.6   4.0 97   1 46.8   3.6 0.1   1.0 S | 175 1.1   2.8 0.00 0.00 50.7   1.0 46.4   4.7
HWY 128/Chalk Hill Rd (Landslide) 5/9/26 0500 47.2   5.6 96   0 46.2   5.5 0.0   0.6 N | 0 0.0   1.8 0.00 0.00 51.1   2.1 47.1   5.4
Newman Knights Valley 5/9/26 0530 47.8   4.9 88   0 44.4   4.7 0.3   0.4 NNE | 33 1.5   0.7 0.00 0.00 51.1   1.8 47.6   4.8
Jimtown-North (Piccolo Ranch 15) 5/9/26 0530 47.5   4.8 100   7 47.5   2.8 0.0   1.8 N | 0 0.0   4.2 0.00 0.00 50.9   3.1 47.0   4.9
Peterson (Ranch 09) 5/9/26 0530 47.6   4.0 93   7 45.8   1.9 0.5   1.0 E | 96 1.7   1.4 0.00 0.00 52.2   0.7 47.6   3.8
Cloverdale-SE (Ranch 38) 5/9/26 0530 51.7   4.1 86   12 47.8   0.6 1.2   2.2 NNW | 332 3.1   2.1 0.00 0.00 57.7   5.8 51.5   4.2
Geyserville-East (Ranch 40) 5/9/26 0530 51.1   1.7 93   7 49.1   0.2 1.3   0.7 NNE | 32 2.3   2.2 0.00 0.00 54.4   2.9 49.9   0.6
N Chalk Hill Rd (Ranch 63) 5/9/26 0530 45.8   5.0 100   9 45.7   2.5 0.2   1.5 ESE | 115 1.0   3.2 0.00 0.00 50.3   1.1 45.8   4.8
Cloverdale-East (Ranch 83) 5/9/26 0530 48.6   0.2 - - 0.2   0.1 NW | 308 1.2   0.4 0.00 0.00 54.4   1.8 48.2   0.6
Crazy Creek Ranch 5/9/26 0530 47.9   4.8 98   2 47.2   4.4 0.2   1.9 W | 272 1.1   3.4 0.00 0.00 51.7   2.1 47.9   4.8
Lytton East (Hill 5) 5/9/26 0530 48.4   1.4 94   2 46.7   1.9 0.8   2.2 NE | 54 2.0   4.2 0.00 0.00 52.6   0.9 47.9   0.7
Lytton East (Shop Hill Bottom) 5/9/26 0530 45.5   4.4 94   0 44.0   4.5 0.2   1.4 NE | 52 1.7   1.4 0.00 0.00 51.3   0.7 45.2   3.2
Lytton West Hill (23PS) 5/9/26 0530 49.0   2.0 98   4 48.4   0.9 1.0   0.0 NW | 310 1.6   1.2 0.00 0.00 52.3   0.3 48.7   2.2
Lytton West Lower (Lew 6) 5/9/26 0530 45.0   5.5 100   7 45.0   3.5 0.0   1.5 ENE | 61 0.8   2.4 0.00 0.00 49.3   3.2 44.6   5.7
Whitton Ranch (201e) 5/9/26 0530 43.9   5.7 100   7 43.9   3.7 0.0   0.9 W | 279 0.5   1.7 0.00 0.00 47.6   5.2 43.8   5.2
Upper Dry Creek Valley 5/9/26 0530 46.5   3.4 95   0 45.2   3.2 0.0   1.3 NNW | 339 0.8   2.1 0.00 0.00 51.5   1.3 46.4   3.2
Big River 5/9/26 0530 48.6   3.0 99   2 48.3   2.4 0.1   0.1 NNE | 30 1.0   0.4 0.00 0.00 52.2   0.4 48.6   2.9
Max     54.4 100 49.1 11.8 - 14.9 0.00 0.00 58.4 53.4
Avg     48.2 93 46.1 0.9 - 1.9 0.00 - - -
Min     43.9 65 42.2 0.0 - 0.0 0.00 0.00 47.6 43.8

Central Sonoma County Latest

37 Stations

15 Minute Data | America/Los_Angeles
as of 5/9/26 5:36 AM PDT
Station Date Time Temp (°F) RH (%) Dew Pt (°F) Wind Spd (mph) Wind Dir (°) Wind Gust (mph) Latest Rain (In) Daily Rain (In) Daily Max Temp (°F) Daily Min Temp (°F)
Windsor-NW (Ranch 8) 5/9/26 0530 48.3   3.9 85   0 44.0   3.9 0.0   0.6 WSW | 245 0.0   1.8 0.00 0.00 52.0   0.5 48.2   3.6
Windsor-East (Ranch 16) 5/9/26 0530 45.4   7.0 98   3 44.8   6.1 0.0   0.4 N | 0 0.0   2.5 0.00 0.00 49.2   3.8 45.2   6.8
Mark West-North (Ranch 14) 5/9/26 0530 47.2   4.9 96   1 46.0   4.7 0.0   1.2 N | 0 0.0   3.3 0.00 0.00 51.4   1.5 47.0   4.8
Windsor-SE (Silk Rd) 5/9/26 0530 44.8   7.4 98   1 44.2   7.6 0.0   0.9 N | 0 0.0   3.5 0.00 0.00 48.9   3.6 44.5   7.1
Fulton-NW (Ranch 5) 5/9/26 0530 46.6   5.3 96   0 45.6   5.2 0.0   1.9 N | 0 0.0   3.6 0.00 0.00 50.5   2.4 46.4   5.3
Bisordi (Fulton) 5/9/26 0530 46.5   5.8 95   1 45.2   5.6 0.0   1.3 N | 0 0.0   2.8 0.00 0.00 50.0   3.0 46.5   5.4
Windsor-South (Laughlin Rd) 5/9/26 0530 47.7   4.1 93   1 45.8   4.2 - - - 0.00 0.00 51.1   1.5 46.5   4.9
Fulton-SE (Barnes Rd) 5/9/26 0530 47.4   4.9 92   1 45.3   5.3 0.0   1.6 N | 0 0.0   3.4 0.00 0.00 53.0   0.5 47.4   4.8
Fulton-SW (Ranch 21) 5/9/26 0530 46.5   4.8 94   93 44.8   105.7 0.0   2.4 N | 0 0.0   3.6 0.00 0.00 49.5   2.7 46.4   4.7
NW Santa Rosa (Piner Road) 5/9/26 0530 46.0   5.4 100   0 46.0   5.4 0.0   1.1 N | 0 0.0   2.3 0.00 0.00 49.4   2.8 45.8   5.4
River Rd South (Denner Ranch) 5/9/26 0530 45.1   6.1 0   0 -71.6   4.7 0.0   2.3 N | 0 0.0   3.7 - - 49.0   2.8 45.0   5.9
West Santa Rosa (LOV Vineyard) 5/9/26 0530 46.0   5.3 96   1 45.0   5.5 0.0   1.2 N | 0 0.0   2.8 0.00 0.00 49.9   2.0 45.9   5.2
Guerneville Rd (Prokopakis) 5/9/26 0530 46.9   4.9 97   1 46.0   5.3 - - - 0.00 0.00 50.4   1.9 46.8   4.6
SunnyView Vineyard (SCWC) 5/9/26 0530 44.3   6.8 96   0 43.2   6.8 0.0   1.0 N | 0 0.0   2.8 0.00 0.00 47.7   4.3 44.0   6.9
Guerneville Rd West (Balletto) 5/9/26 0530 46.1   5.6 97   2 45.2   6.2 0.0   1.7 N | 0 0.0   3.6 0.00 0.00 49.4   2.8 45.6   5.8
Sanchietti Ranch 5/9/26 0530 46.4   6.0 96   1 45.2   6.2 0.1   0.7 W | 279 1.4   1.8 0.00 0.00 49.9   3.2 46.2   5.7
Occidental Rd (Sebastopol) 5/9/26 0530 45.7   5.4 100   0 45.7   5.4 0.0   0.2 N | 0 0.0   1.8 0.00 0.00 48.2   3.5 45.3   5.4
Harper's Rest (Windsor-West) 5/9/26 0530 44.6   6.4 97   2 43.8   5.9 1.1   0.5 W | 260 1.6   0.3 0.00 0.00 47.5   3.6 44.2   6.2
Lower Westside Rd (Ranch 12) 5/9/26 0530 45.8   6.3 97   0 44.9   6.2 0.1   1.0 W | 259 1.2   0.9 0.00 0.00 50.2   2.3 45.6   5.9
Guerneville (Laughlin Rd) 5/9/26 0530 49.2   2.3 97   1 48.4   2.1 0.7   0.7 NNW | 334 1.8   1.0 0.00 0.00 49.9   1.9 48.2   2.6
Korbel (Winery) 5/9/26 0530 49.9   2.2 97   1 49.2   1.9 0.0   0.0 N | 0 0.0   0.0 0.00 0.00 52.1   0.8 49.9   1.8
Forestville (Shone Farms) 5/9/26 0530 46.8   5.1 95   2 45.5   5.5 1.1   0.4 WSW | 239 1.9   0.4 0.00 0.00 50.8   3.1 46.0   3.9
Forestville-NE (Ranch 30) 5/9/26 0530 44.8   6.6 98   0 44.4   6.6 0.0   0.8 N | 0 0.0   1.8 0.00 0.00 49.3   2.2 44.8   6.0
Foggy Bend (Ranch 41) 5/9/26 0530 46.7   6.0 96   2 45.6   5.3 0.4   1.3 WSW | 238 1.5   1.5 0.00 0.00 50.7   2.1 46.6   5.4
Last Stop 5/9/26 0530 44.6   7.3 97   0 43.9   7.3 0.5   0.1 WNW | 282 1.5   0.4 0.00 0.00 48.0   3.9 43.8   7.5
Green Valley Vineyard 5/9/26 0530 45.9   4.9 97   1 45.2   5.2 0.6   0.1 W | 280 2.2   0.2 0.00 0.00 49.1   2.1 45.4   4.8
Park Royal 5/9/26 0530 45.8   5.5 96   2 44.8   6.0 - - - 0.00 0.00 50.1   2.1 45.5   5.1
Merino 5/9/26 0530 44.1   7.4 100   0 44.1   7.4 0.3   1.4 SSW | 195 1.2   2.2 0.00 0.00 47.8   4.3 43.8   7.1
Green Valley (Sanchietti) 5/9/26 0530 44.7   7.4 - - - - - - - 49.4   3.1 44.5   7.2
Keefer Ranch (Green Valley) 5/9/26 0530 44.4   7.5 97   0 43.4   7.6 - - - 0.00 0.00 47.8   4.2 44.3   7.1
Graton-West (Dutton Ranch) 5/9/26 0530 45.7   6.1 100   0 45.7   6.1 0.0   0.6 N | 0 0.0   2.5 0.00 0.00 49.2   3.0 45.2   6.2
Graton-South (Mill Station Rd) 5/9/26 0530 45.1   5.8 98   1 44.5   6.0 0.0   0.1 N | 0 0.0   2.3 0.00 0.00 48.0   3.4 44.9   5.4
Occidental (Horseshoe Bend) 5/9/26 0530 49.8   0.0 95   5 48.4   1.4 - - - 0.00 0.00 53.1   3.2 49.3   0.8
Sexton Valley (Jacqueline's Blk) 5/9/26 0530 45.4   5.8 97   2 44.5   6.2 0.0   1.0 N | 0 0.0   2.6 0.00 0.00 47.5   4.2 44.3   6.5
Sebastopol Hills (Burnside Rd) 5/9/26 0530 48.3   1.5 98   2 47.9   1.9 0.6   0.6 NNE | 13 2.3   2.3 0.00 0.00 50.3   0.1 47.7   1.7
Pleasant Hill 5/9/26 0530 46.3   3.7 97   0 45.6   3.7 1.6   0.6 NW | 312 2.9   0.4 0.00 0.00 47.5   3.1 44.1   5.5
Seaview/Fort Ross (Hirsch) 5/9/26 0530 55.3   11.1 64   33 43.3   0.1 4.3   0.4 NNW | 348 9.6   2.1 0.00 0.00 58.6   2.7 55.0   10.8
Max     55.3 100 49.2 4.3 - 9.6 0.00 0.00 58.6 55.0
Avg     46.5 93 42.0 0.4 - 0.9 0.00 - - -
Min     44.1 0 -71.6 0.0 - 0.0 0.00 0.00 47.5 43.8

Southern Sonoma County Latest

20 Stations

15 Minute Data
as of 5/9/26 5:36 AM PDT
Station Date Time Temp (°F) RH (%) Dew Pt (°F) Wind Spd (mph) Wind Dir (°) Wind Gust (mph) Latest Rain (In) Daily Rain (In) Daily Min Temp (°F) Daily Max Temp (°F)
Upper Rincon Valley 5/9/26 0530 49.8   0.9 90   8 47.1   1.3 1.4   0.7 N | 6 2.1   2.1 0.00 0.00 49.7   1.7 55.2   5.7
Lower Bennett Valley 5/9/26 0530 42.0   7.8 100   0 42.0   7.8 0.2   1.3 S | 189 1.7   1.6 0.00 0.00 41.9   7.8 46.1   4.6
Kenwood (Wildwood) 5/9/26 0530 45.8   4.5 100   0 45.8   4.5 0.9   0.0 NNE | 20 2.0   0.3 0.00 0.00 45.6   4.5 50.2   1.7
Crane Creek (Ranch 62) 5/9/26 0530 46.4   3.6 97   1 45.7   4.0 0.0   1.1 NNE | 31 0.8   2.7 0.00 0.00 46.0   3.9 48.2   3.0
Rohnert Park-West (Stony Point) 5/9/26 0530 43.7   6.8 97   0 42.8   6.9 0.0   0.2 N | 0 0.0   2.6 0.00 0.00 43.6   6.8 47.2   4.8
Rice-Spivak Vineyard 5/9/26 0530 38.2   11.9 - - - - - - - 38.1   11.8 40.8   10.5
Cartograph Wines Base 5/9/26 0530 47.2   2.5 98   1 46.6   2.8 1.0   0.8 SW | 227 1.8   1.0 0.00 0.00 46.3   3.0 48.8   2.1
Cartograph Wines Remote 5/9/26 0530 43.9   6.5 - - - - - - - 43.9   6.1 46.5   5.1
Penngrove (Asellus) 5/9/26 0530 42.6   7.6 97   1 41.8   7.2 0.5   1.2 NW | 311 1.4   3.1 0.00 0.00 42.4   7.6 46.0   5.8
Sonoma Valley (Bedrock) 5/9/26 0530 44.6   5.3 96   1 43.6   5.0 - - - 0.00 0.00 44.1   5.6 48.3   3.0
Sonoma-West (Arnold) 5/9/26 0530 44.8   6.6 100   6 44.8   4.9 0.0   2.8 N | 0 0.0   5.9 0.00 0.00 44.4   7.0 47.0   5.6
Sonoma Valley HS 5/9/26 0530 46.9   4.8 100   1 46.9   4.6 0.0   1.9 N | 0 0.0   4.0 0.00 0.00 46.1   5.3 49.2   3.7
Sonoma East (Bundschu01) 5/9/26 0530 45.2   6.9 94   0 43.4   6.7 0.0   3.2 N | 0 0.0   7.9 0.00 0.00 45.1   6.8 50.0   2.9
Sonoma-SE (Napoli) 5/9/26 0530 45.0   6.8 93   0 43.0   6.8 0.0   3.7 N | 0 0.0   7.4 0.00 0.00 44.7   6.8 50.8   1.9
Schellville (Sasaki) 2/7/26 1900 53.4   2.2 88   10 49.9   1.0 3.3   1.8 SW | 225 5.8   4.0 0.00 0.00 47.0   0.8 62.8   8.4
Petaluma (Ranch 10) 5/9/26 0530 43.1   8.5 95   6 41.9   6.8 0.0   3.2 N | 0 0.0   6.4 0.00 0.00 43.0   8.5 46.4   6.6
Carneros (Ranch 71) 5/9/26 0530 51.0   0.5 91   5 48.4   0.9 1.6   5.0 ENE | 58 3.3   6.6 0.00 0.00 50.2   0.1 51.9   0.6
Ricci Vineyards (Carneros) 5/9/26 0530 45.2   6.2 95   3 43.8   5.4 0.6   4.8 NNW | 344 1.1   7.5 0.00 0.00 45.1   5.9 48.8   3.3
Carneros Upper (Ranch 81) 5/9/26 0530 51.7   1.2 90   89 48.8   105.6 0.0   7.2 N | 0 0.0   10.4 - - 50.1   0.2 52.7   1.5
Carneros Lower (Ranch 81) 5/9/26 0530 48.4   3.6 99   7 48.2   1.6 0.1   0.2 N | 356 1.2   2.0 0.00 0.00 46.6   5.3 50.7   1.7
Max     51.7 100 48.8 1.6 - 3.3 0.00 0.00 50.2 55.2
Avg     45.6 96 45.0 0.4 - 1.0 0.00 - - -
Min     38.2 90 41.8 0.0 - 0.0 0.00 0.00 38.1 40.8

AQI Map

Map

Hourly Data